Location: Dehesa de la Cepeda
(40.6574°N, 4.3013°W)
Time: 10:29:46
(UTC+00:00)

Transit 2A Rocket - Pass Details

Date: 05 August 2021
Orbit: 586 x 917 km, 66.7° (Epoch: 24 September)

Event Time Altitude Azimuth Distance (km) Brightness Sun altitude
Rises 23:03:35 0° 321° (NW) 3,345 9.4 -29.7°
Reaches altitude 10° 23:06:08 10° 313° (NW) 2,457 8.4 -29.9°
Enters shadow 23:10:45 34° 260° (W) 1,395 6.3 -30.2°
Maximum altitude 23:11:15 35° 249° (WSW) 1,384 - -30.3°
Drops below altitude 10° 23:16:38 10° 186° (S) 2,577 - -30.6°
Sets 23:19:23 0° 178° (S) 3,530 - -30.8°
